Home   Weather   Providence   Past weeks
Flag for USA

Past Weather in Providence, Rhode Island, USA — Yesterday and Last 2 Weeks

Now
29 °F

Light freezing rain. Ice fog.


Feels Like: 20 °F
Forecast: 50 / 16 °F
Wind: 9 mph from Northeast

Location: Green State Airport

Current Time: Jan 19, 2019 at 8:39:02 pm

Latest Report: Jan 19, 2019 at 7:51 pm


Visibility: 3 mi

Pressure: 30.17 "Hg

Humidity: 93%

Dew Point: 27 °F

Location of ProvidenceLocation

Past Weather in Providence — Graph

°F

Providence Temperature Yesterday

Maximum temperature yesterday: 38 °F (at 1:51 pm)
Minimum temperature yesterday: 25 °F (at 4:51 am)
Average temperature yesterday: 32 °F

High & Low Weather Summary for the Past Weeks

 TemperatureHumidityPressure
High46 °F (Jan 6, 1:51 pm)100% (Jan 5, 5:51 am)30.51 "Hg (Jan 5, 5:51 am)
Low14 °F (Jan 12, 2:51 am)24% (Jan 17, 12:51 pm)29.34 "Hg (Jan 9, 11:51 am)
Average31 °F66%30.02 "Hg
* Reported Jan 4 6:51 pm — Jan 19 6:09 pm, Providence. Weather by CustomWeather, © 2019

Note: Actual official high and low records may vary slightly from our data, if they occured in-between our weather recording intervals... More about our weather records

Advertising

Providence Weather History for the Previous 24 Hours

Scroll right to see more
 ConditionsComfort  
Time TempWeatherWind HumidityBarometerVisibility
6:09 pm
Sat, Jan 19
28 °FLight freezing rain. Ice fog.10 mph89%30.20 "Hg3 mi
5:27 pm28 °FHeavy mixture of precip. Ice fog.8 mph85%30.25 "Hg2 mi
4:51 pm30 °FHeavy mixture of precip. Overcast.8 mph75%30.25 "Hg9 mi
3:51 pm30 °FHeavy mixture of precip. Overcast.7 mph72%30.24 "Hg6 mi
2:51 pm31 °FMostly cloudy.9 mph67%30.22 "Hg10 mi
2:05 pm33 °FMostly cloudy.10 mph61%30.23 "Hg10 mi
12:51 pm36 °FPartly sunny.7 mph52%30.25 "Hg10 mi
11:51 am35 °FBroken clouds.12 mph52%30.29 "Hg10 mi
10:51 am35 °FScattered clouds.8 mph54%30.30 "Hg10 mi
9:51 am33 °FScattered clouds.13 mph58%30.30 "Hg10 mi
8:51 am31 °FScattered clouds.9 mph64%30.26 "Hg10 mi
7:51 am25 °FScattered clouds.3 mph81%30.26 "Hg10 mi
6:51 am25 °FPassing clouds.6 mph78%30.25 "Hg10 mi
5:51 am26 °FPassing clouds.3 mph74%30.21 "Hg10 mi
4:51 am26 °FClear.3 mph71%30.20 "Hg10 mi
3:51 am29 °FClear.3 mph66%30.19 "Hg10 mi
2:51 am31 °FClear.5 mph61%30.16 "Hg10 mi
1:51 am32 °FClear.5 mph59%30.15 "Hg10 mi
12:51 am34 °FClear.6 mph61%30.14 "Hg10 mi
11:51 pm
Fri, Jan 18
33 °FPassing clouds.5 mph82%30.13 "Hg10 mi
10:51 pm32 °FMostly cloudy.3 mph88%30.11 "Hg10 mi
9:51 pm33 °FMostly cloudy.5 mph88%30.09 "Hg10 mi
8:51 pm33 °FMostly cloudy.6 mph85%30.07 "Hg10 mi
Weather by CustomWeather, © 2019

See weather overview